{"data":{"norad_id":33492,"epoch":"2026-09-20T02:47:19.242816Z","epoch_age_seconds":51376,"freshness":"FRESH","line1":"1 33492U 09002A   26263.11619494  .00000296  00000+0  60730-4 0  9992","line2":"2 33492  98.0963  13.0415 0001571  94.1708 265.9676 14.67534170945383","mean_motion":14.6753417,"eccentricity":0.0001571,"inclination_deg":98.0963,"raan_deg":13.0415,"arg_perigee_deg":94.1708,"mean_anomaly_deg":265.9676,"bstar":6.073e-5,"rev_number":94538,"period_min":98.123779973041,"perigee_km":667.84387787728,"apogee_km":670.05807291915,"semimajor_km":7047.0879753982,"source":"CELESTRAK","updated_at":"2026-09-20T09:00:33.889279Z"}}